| time (UTC) | temp C | wind direction | speed KPH | gust KPH | rain 1hr cm | rain 24hr cm | rain mn cm | humidity % | barometer mb |
| 20260506204541 | 23 | 26 | 16.1 | 29.0 | 0.00 | 0.00 | 0.00 | 74 | 1010.7 |
| 20260506203041 | 25 | 13 | 12.9 | 22.5 | 0.00 | 0.00 | 0.00 | 73 | 1010.6 |
| 20260506201541 | 25 | 11 | 14.5 | 22.5 | 0.00 | 0.00 | 0.00 | 76 | 1010.4 |
| 20260506200042 | 25 | 28 | 14.5 | 25.7 | 0.00 | 0.00 | 0.00 | 76 | 1010.2 |
| 20260506194544 | 25 | 344 | 8.0 | 22.5 | 0.00 | 0.00 | 0.00 | 77 | 1010.2 |
| 20260506193050 | 25 | 31 | 11.3 | 17.7 | 0.00 | 0.00 | 0.00 | 75 | 1010.2 |
| 20260506191542 | 23 | 340 | 9.7 | 16.1 | 0.00 | 0.00 | 0.00 | 77 | 1010.3 |
| 20260506190041 | 23 | 348 | 8.0 | 16.1 | 0.00 | 0.00 | 0.00 | 77 | 1010.6 |
| 20260506184540 | 23 | 48 | 4.8 | 14.5 | 0.00 | 0.00 | 0.00 | 78 | 1010.5 |
| 20260506183042 | 22 | 55 | 9.7 | 17.7 | 0.00 | 0.00 | 0.00 | 78 | 1010.6 |
| 20260506181556 | 21 | 26 | 9.7 | 17.7 | 0.00 | 0.00 | 0.00 | 80 | 1010.5 |
| 20260506180043 | 21 | 18 | 11.3 | 20.9 | 0.00 | 0.00 | 0.00 | 80 | 1010.5 |
| 20260506174541 | 20 | 42 | 4.8 | 19.3 | 0.00 | 0.00 | 0.00 | 85 | 1010.9 |
| 20260506173105 | 18 | 63 | 6.4 | 22.5 | 0.00 | 0.00 | 0.00 | 85 | 1011.2 |
| 20260506171546 | 18 | 32 | 14.5 | 32.2 | 0.00 | 0.00 | 0.00 | 87 | 1011.5 |
| 20260506164542 | 21 | 11 | 22.5 | 38.6 | 0.00 | 0.00 | 0.00 | 79 | 1011.6 |
| 20260506163052 | 26 | 63 | 3.2 | 14.5 | 0.00 | 0.00 | 0.00 | 84 | 1011.3 |
| 20260506161542 | 25 | 65 | 8.0 | 12.9 | 0.00 | 0.00 | 0.00 | 87 | 1011.4 |
| 20260506160044 | 25 | 9 | 4.8 | 8.0 | 0.00 | 0.00 | 0.00 | 88 | 1011.5 |
| 20260506154605 | 24 | 36 | 4.8 | 8.0 | 0.00 | 0.00 | 0.00 | 89 | 1011.1 |
| 20260506153041 | 24 | 46 | 3.2 | 6.4 | 0.00 | 0.00 | 0.00 | 89 | 1010.6 |
| 20260506151542 | 24 | 65 | 1.6 | 4.8 | 0.00 | 0.00 | 0.00 | 89 | 1010.1 |
| 20260506150042 | 24 | 88 | 1.6 | 4.8 | 0.00 | 0.00 | 0.00 | 90 | 1009.9 |
| 20260506144550 | 24 | 106 | 1.6 | 4.8 | 0.00 | 0.00 | 0.00 | 90 | 1009.8 |
| 20260506143040 | 24 | 76 | 0.0 | 3.2 | 0.00 | 0.00 | 0.00 | 90 | 1010.0 |
| 20260506141542 | 24 | 84 | 0.0 | 3.2 | 0.00 | 0.00 | 0.00 | 90 | 1010.0 |
| 20260506140042 | 23 | 148 | 1.6 | 6.4 | 0.00 | 0.00 | 0.00 | 90 | 1009.3 |
| 20260506134542 | 23 | 130 | 3.2 | 6.4 | 0.00 | 0.00 | 0.00 | 91 | 1009.0 |
| 20260506133055 | 23 | 139 | 1.6 | 4.8 | 0.00 | 0.00 | 0.00 | 92 | 1008.9 |
| 20260506131541 | 23 | 149 | 1.6 | 4.8 | 0.00 | 0.00 | 0.00 | 92 | 1009.0 |
| 20260506130041 | 23 | 128 | 3.2 | 6.4 | 0.00 | 0.00 | 0.00 | 93 | 1008.8 |
| 20260506124544 | 23 | 128 | 1.6 | 4.8 | 0.00 | 0.00 | 0.00 | 93 | 1009.1 |
| 20260506123044 | 23 | 119 | 0.0 | 3.2 | 0.00 | 0.00 | 0.00 | 93 | 1009.0 |
| 20260506121542 | 23 | 99 | 1.6 | 4.8 | 0.00 | 0.00 | 0.00 | 93 | 1009.0 |
| 20260506120041 | 23 | 109 | 1.6 | 3.2 | 0.00 | 0.00 | 0.00 | 93 | 1008.9 |
| 20260506114548 | 23 | 147 | 0.0 | 3.2 | 0.00 | 0.00 | 0.00 | 92 | 1008.9 |
| 20260506113042 | 23 | 138 | 0.0 | 3.2 | 0.00 | 0.00 | 0.00 | 92 | 1008.7 |
| 20260506111543 | 23 | 161 | 1.6 | 4.8 | 0.00 | 0.00 | 0.00 | 92 | 1008.5 |
| 20260506110047 | 23 | 153 | 3.2 | 9.7 | 0.00 | 0.00 | 0.00 | 92 | 1008.6 |
| 20260506104606 | 23 | 163 | 4.8 | 8.0 | 0.00 | 0.00 | 0.00 | 92 | 1008.2 |
| 20260506103042 | 23 | 183 | 6.4 | 14.5 | 0.00 | 0.00 | 0.00 | 91 | 1008.3 |
| 20260506101600 | 23 | 186 | 6.4 | 20.9 | 0.00 | 0.00 | 0.00 | 91 | 1008.1 |
| 20260506100045 | 23 | 180 | 6.4 | 16.1 | 0.00 | 0.00 | 0.00 | 91 | 1008.0 |
| 20260506094543 | 23 | 196 | 8.0 | 16.1 | 0.00 | 0.00 | 0.00 | 91 | 1007.7 |
| 20260506093040 | 23 | 160 | 8.0 | 24.1 | 0.00 | 0.00 | 0.00 | 91 | 1007.6 |
| 20260506091541 | 23 | 210 | 9.7 | 19.3 | 0.00 | 0.00 | 0.00 | 91 | 1007.6 |
| 20260506090046 | 23 | 185 | 8.0 | 19.3 | 0.00 | 0.00 | 0.00 | 92 | 1007.6 |
| 20260506084545 | 23 | 180 | 8.0 | 16.1 | 0.00 | 0.00 | 0.00 | 92 | 1007.6 |
| 20260506083048 | 23 | 175 | 6.4 | 14.5 | 0.00 | 0.00 | 0.00 | 91 | 1007.7 |
| 20260506081541 | 23 | 173 | 6.4 | 16.1 | 0.00 | 0.00 | 0.00 | 91 | 1007.8 |
| 20260506073042 | 23 | 183 | 8.0 | 17.7 | 0.00 | 0.00 | 0.00 | 90 | 1007.9 |
| 20260506071545 | 23 | 177 | 8.0 | 17.7 | 0.00 | 0.00 | 0.00 | 91 | 1008.1 |
| 20260506061541 | 23 | 162 | 4.8 | 12.9 | 0.00 | 0.00 | 0.00 | 91 | 1008.3 |
| 20260506044542 | 23 | 175 | 6.4 | 11.3 | 0.00 | 0.00 | 0.00 | 89 | 1008.3 |
| 20260506043049 | 23 | 173 | 8.0 | 12.9 | 0.00 | 0.00 | 0.00 | 88 | 1008.5 |
| 20260506041547 | 24 | 192 | 8.0 | 14.5 | 0.00 | 0.00 | 0.00 | 88 | 1008.0 |
| 20260506040050 | 24 | 154 | 8.0 | 16.1 | 0.00 | 0.00 | 0.00 | 88 | 1008.0 |
| 20260506034541 | 24 | 159 | 8.0 | 19.3 | 0.00 | 0.00 | 0.00 | 87 | 1007.9 |
| 20260506033043 | 24 | 167 | 8.0 | 16.1 | 0.00 | 0.00 | 0.00 | 87 | 1007.5 |
| 20260506031541 | 24 | 166 | 6.4 | 16.1 | 0.00 | 0.00 | 0.00 | 86 | 1007.5 |
| 20260506030040 | 24 | 179 | 8.0 | 19.3 | 0.00 | 0.00 | 0.00 | 85 | 1007.3 |
| 20260506024546 | 25 | 158 | 8.0 | 12.9 | 0.00 | 0.00 | 0.00 | 84 | 1006.9 |
| 20260506023043 | 25 | 164 | 8.0 | 16.1 | 0.00 | 0.00 | 0.00 | 83 | 1007.0 |
| 20260506021552 | 25 | 149 | 8.0 | 20.9 | 0.00 | 0.00 | 0.00 | 83 | 1006.6 |
| 20260506020041 | 25 | 155 | 6.4 | 17.7 | 0.00 | 0.00 | 0.00 | 82 | 1006.6 |
| 20260506014541 | 26 | 144 | 3.2 | 12.9 | 0.00 | 0.00 | 0.00 | 79 | 1006.6 |
| 20260506013044 | 26 | 157 | 6.4 | 12.9 | 0.00 | 0.00 | 0.00 | 79 | 1006.4 |
| 20260506011548 | 26 | 141 | 3.2 | 6.4 | 0.00 | 0.00 | 0.00 | 79 | 1006.3 |
| 20260506010048 | 26 | 144 | 3.2 | 6.4 | 0.00 | 0.00 | 0.00 | 78 | 1006.0 |
| 20260506004540 | 27 | 137 | 3.2 | 9.7 | 0.00 | 0.00 | 0.00 | 77 | 1005.9 |
| 20260506003042 | 27 | 134 | 1.6 | 4.8 | 0.00 | 0.00 | 0.00 | 75 | 1005.7 |
| 20260506001541 | 27 | 140 | 3.2 | 11.3 | 0.00 | 0.00 | 0.00 | 74 | 1005.5 |
| 20260506000040 | 28 | 192 | 6.4 | 12.9 | 0.00 | 0.00 | 0.00 | 72 | 1005.6 |
| 20260505234605 | 28 | 153 | 6.4 | 16.1 | 0.00 | 0.00 | 0.00 | 72 | 1005.5 |
| 20260505233047 | 28 | 165 | 9.7 | 19.3 | 0.00 | 0.00 | 0.00 | 71 | 1005.4 |
| 20260505231542 | 28 | 148 | 9.7 | 22.5 | 0.00 | 0.00 | 0.00 | 72 | 1005.3 |
| 20260505230046 | 28 | 146 | 9.7 | 17.7 | 0.00 | 0.00 | 0.00 | 72 | 1005.3 |
| 20260505224541 | 28 | 192 | 8.0 | 17.7 | 0.00 | 0.00 | 0.00 | 71 | 1005.4 |
| 20260505223046 | 28 | 135 | 9.7 | 17.7 | 0.00 | 0.00 | 0.00 | 71 | 1005.4 |
| 20260505221543 | 28 | 194 | 9.7 | 19.3 | 0.00 | 0.00 | 0.00 | 72 | 1005.5 |
| 20260505220046 | 28 | 169 | 12.9 | 20.9 | 0.00 | 0.00 | 0.00 | 71 | 1005.6 |
| 20260505214552 | 28 | 184 | 9.7 | 24.1 | 0.00 | 0.00 | 0.00 | 71 | 1005.8 |
| 20260505213042 | 28 | 161 | 11.3 | 19.3 | 0.00 | 0.00 | 0.00 | 71 | 1005.9 |
| 20260505211549 | 28 | 169 | 11.3 | 22.5 | 0.00 | 0.00 | 0.00 | 71 | 1006.0 |
| 20260505210041 | 28 | 190 | 14.5 | 27.4 | 0.00 | 0.00 | 0.00 | 69 | 1006.2 |